STARLINK-11645, 63316

Orbit data source: Space-Track

STARLINK-11645, 63316 is a payload satellite owned by SpaceX/Seattle (US) in LEO that was launched on Tue, 18 Mar 2025 UTC via an FALCON 9 launch vehicle from the Air Force Eastern Test Range (AFETR). Payload-class satellites include a variety of spacecraft equipped with specific instruments for various scientific and technological missions. These include communications satellites like Starlink; space stations such as the ISS; scientific satellites like the Hubble; Earth observation satellites from companies like Planet Labs, Umbra, and HawkEye 360; GPS; miniature CubeSats for education and research; and military/defense satellites.

Loading next visibility...
Identifier
63316, 2025-057K
Orbit
LEO
Last TLE update
15 hours ago
Origin
Manufacturer
SpaceX/Seattle
Mission
Operational Commercial Communications
Bus & Motor
STARLINK V2M, Unknown motor
Mass
730 kg wet, ~700 kg dry
Launch date (UTC)
2025-03-18 (4 months ago)
Launch vehicle
FALCON 9
Launch site
Air Force Eastern Test Range (AFETR)
Object type
Payload
Rocket body
Debris
Shape & HBR
Box + 2 Pan, 29 m
Radar Cross Section
36.964 m², Large (>1 m²)

Expand to show TLE details & history

TLE from 15 hours ago
0 STARLINK-11645
1 63316U 25057K   25191.83335648 -.00093604  00000-0 -73316-3 0  9993
2 63316  42.9999 282.6385 0001610 272.9927 200.6974 15.70873352  5984
Epoch: 2025-07-10T20:00Z
TLE epoch observation values (Epoch: 2025-07-10T20:00:01.999Z)
Latitude
38.79828°
Longitude
174.61961°
Altitude
359.601 km
Speed
7.699 km/s
True Right ascension
02h 54m 29s
True Declination
38° 37' 14"
Sunlit
Object was in daylight at epoch
Visualization orbit readout
Latitude
33.99259°
Longitude
-176.18761°
Altitude
358.962 km
Speed
7.698 km/s
Apparent Right ascension
07h 07m 07s
Apparent Declination
-3° 35' 14"
Sunlit
Object is in daylight
Visualization observer readout
Local Sidereal Time
23:36:35
Azimuth
77.843° E
Elevation
-19.555°
Doppler factor
1
Orbital elements
Apogee altitude
359.466 km
Perigee altitude
357.297 km
Semi-major axis
6,736.518 km
Eccentricity
0.00016
Inclination
42.9999°
RAAN
282.6385°
Arg. of periapsis
272.9927°
True anomaly
Unknown
Mean anomaly
200.6974°
Eccentric anomaly
Unknown
Mean motion
3.92545 °/min
Orbital period
91.71 mins
BSTAR
-0.00073316
Loading maneuver chart data...
Loading SW <> Apogee altitude chart data...
Loading historical data...
Loading historical data...
Loading historical data...
Loading historical data...
Loading historical data...
Loading historical data...
Loading historical data...

STARLINK-11645 Visibility forecast

Observer location: undefined°, undefined°

Span
Click to sort rows by Start time (UTC) header in descending order
Start Az.
Max El. time (UTC)
Max El. Az.
Max El.
End time (UTC)
End Az.
4 mins2025-07-11 12:40:34.376Z296.637° NW2025-07-11 12:42:34.376Z10.333° NNE35.254°2025-07-11 12:44:34.376Z74.553° E
4 mins2025-07-11 14:17:34.376Z275.807° WNW2025-07-11 14:18:34.376Z224.403° SW42.538°2025-07-11 14:21:34.376Z118.555° SE
4 mins2025-07-12 09:56:34.376Z244.597° WSW2025-07-12 09:57:34.376Z216.511° SW44.141°2025-07-12 10:00:34.376Z72.92° E
|